When you browse on this site, cookies collect data to enhance your experience and personalize the content and advertising you see.
Visit our Privacy Policy to learn more. By continuing to use the site, you agree to this use of cookies and data.
  • In Germany
  • List of Countries
  • For 7 days
  • Water Temperature
  • Satellite Maps
  • Weather Map
  • Weather Widgets
  • user-avatar
    Login

    Hourly Weather Mostar

    Today, 20 January, Sunday

    Time Temperature Precipitation Wind Pressure Humidity
    00:00 +9°C° 0.5 mm 1 mps 752 mmHg 94%
    01:00 +8°C° 0 mm 1 mps 752 mmHg 93%
    02:00 +8°C° 0.3 mm 1 mps 752 mmHg 94%
    03:00 +8°C° 0.3 mm 1 mps 752 mmHg 94%
    04:00 +8°C° 0.3 mm 1 mps 752 mmHg 94%
    05:00 +8°C° 0.2 mm 1 mps 752 mmHg 93%
    06:00 +8°C° 0.2 mm 1 mps 752 mmHg 93%
    07:00 +7°C° 0.2 mm 1 mps 752 mmHg 93%
    08:00 +8°C° 0.1 mm 1 mps 752 mmHg 91%
    09:00 +9°C° 0.1 mm 1 mps 753 mmHg 89%
    10:00 +10°C° 0.1 mm 1 mps 753 mmHg 86%
    11:00 +10°C° 0.1 mm 1 mps 753 mmHg 83%
    12:00 +11°C° 0.1 mm 1 mps 753 mmHg 80%
    13:00 +11°C° 0.1 mm 1 mps 753 mmHg 77%
    14:00 +11°C° 0.1 mm 1 mps 753 mmHg 79%
    15:00 +10°C° 0.1 mm 1 mps 753 mmHg 82%
    16:00 +10°C° 0.1 mm 1 mps 753 mmHg 84%
    17:00 +10°C° 0.3 mm 1 mps 753 mmHg 85%
    18:00 +9°C° 0.3 mm 1 mps 753 mmHg 87%
    19:00 +9°C° 0.3 mm 1 mps 753 mmHg 88%
    20:00 +8°C° 0.3 mm 1 mps 754 mmHg 88%
    21:00 +8°C° 0.3 mm 1 mps 754 mmHg 88%
    22:00 +8°C° 0.3 mm 1 mps 754 mmHg 88%
    23:00 +8°C° 0.7 mm 1 mps 754 mmHg 88%

    Tomorrow, 21 January, Monday

    Time Temperature Precipitation Wind Pressure Humidity
    00:00 +8°C° 0.7 mm 1 mps 754 mmHg 88%
    01:00 +8°C° 0.7 mm 1 mps 754 mmHg 88%
    02:00 +8°C° 1.6 mm 1 mps 754 mmHg 88%
    03:00 +6°C° 1.6 mm 2 mps 754 mmHg 88%
    04:00 +6°C° 1.6 mm 2 mps 754 mmHg 88%
    05:00 +6°C° 1.4 mm 2 mps 754 mmHg 88%
    06:00 +6°C° 1.4 mm 2 mps 754 mmHg 87%
    07:00 +6°C° 1.4 mm 2 mps 754 mmHg 87%
    08:00 +6°C° 0.5 mm 2 mps 755 mmHg 86%
    09:00 +6°C° 0.5 mm 2 mps 755 mmHg 85%
    10:00 +7°C° 0.5 mm 2 mps 755 mmHg 83%
    11:00 +7°C° 0.3 mm 2 mps 755 mmHg 82%
    12:00 +7°C° 0.3 mm 3 mps 755 mmHg 81%
    13:00 +8°C° 0.3 mm 3 mps 754 mmHg 80%
    14:00 +7°C° 0.3 mm 3 mps 754 mmHg 80%
    15:00 +7°C° 0.3 mm 2 mps 754 mmHg 81%
    16:00 +7°C° 0.3 mm 2 mps 754 mmHg 82%
    17:00 +7°C° 0.4 mm 2 mps 754 mmHg 83%
    18:00 +6°C° 0.4 mm 2 mps 754 mmHg 84%
    19:00 +5°C° 0.4 mm 3 mps 754 mmHg 85%
    20:00 +6°C° 0.4 mm 2 mps 754 mmHg 85%
    21:00 +6°C° 0.4 mm 2 mps 754 mmHg 85%
    22:00 +6°C° 0.4 mm 2 mps 754 mmHg 85%
    23:00 +6°C° 1.1 mm 2 mps 754 mmHg 86%

    Day after tomorrow, 22 January, Tuesday

    Time Temperature Precipitation Wind Pressure Humidity
    00:00 +6°C° 1.1 mm 2 mps 754 mmHg 86%
    01:00 +6°C° 1.1 mm 2 mps 753 mmHg 87%
    02:00 +6°C° 0.7 mm 2 mps 753 mmHg 86%
    03:00 +6°C° 0.7 mm 2 mps 752 mmHg 86%
    04:00 +5°C° 0.7 mm 3 mps 752 mmHg 85%
    05:00 +5°C° 1.4 mm 3 mps 752 mmHg 86%
    06:00 +5°C° 1.4 mm 3 mps 751 mmHg 86%
    07:00 +5°C° 1.4 mm 3 mps 751 mmHg 87%
    08:00 +5°C° 1.7 mm 3 mps 750 mmHg 87%
    09:00 +5°C° 1.7 mm 3 mps 750 mmHg 87%
    10:00 +5°C° 1.7 mm 3 mps 750 mmHg 87%
    11:00 +5°C° 0.5 mm 3 mps 749 mmHg 86%
    12:00 +5°C° 0.5 mm 3 mps 748 mmHg 86%
    13:00 +7°C° 0.5 mm 2 mps 748 mmHg 85%
    14:00 +7°C° 0.1 mm 2 mps 747 mmHg 84%
    15:00 +7°C° 0.1 mm 2 mps 746 mmHg 84%
    16:00 +7°C° 0.1 mm 2 mps 746 mmHg 84%
    17:00 +7°C° 0.2 mm 2 mps 745 mmHg 84%
    18:00 +7°C° 0.2 mm 2 mps 745 mmHg 84%
    19:00 +7°C° 0.2 mm 2 mps 745 mmHg 84%
    20:00 +7°C° 0.1 mm 2 mps 744 mmHg 84%
    21:00 +7°C° 0.1 mm 2 mps 744 mmHg 84%
    22:00 +7°C° 0.1 mm 2 mps 743 mmHg 84%
    23:00 +7°C° 0.2 mm 2 mps 743 mmHg 85%

    23 January, Wednesday

    Time Temperature Precipitation Wind Pressure Humidity
    00:00 +7°C° 0.2 mm 2 mps 742 mmHg 85%
    01:00 +7°C° 0.2 mm 2 mps 742 mmHg 86%
    02:00 +7°C° 0.4 mm 2 mps 741 mmHg 86%
    03:00 +6°C° 0.4 mm 2 mps 741 mmHg 87%
    04:00 +6°C° 0.4 mm 2 mps 740 mmHg 87%
    05:00 +6°C° 1 mm 2 mps 740 mmHg 87%
    06:00 +6°C° 1 mm 2 mps 740 mmHg 88%
    07:00 +6°C° 1 mm 2 mps 740 mmHg 88%
    08:00 +7°C° 1.8 mm 1 mps 740 mmHg 90%
    09:00 +7°C° 1.8 mm 1 mps 740 mmHg 91%
    10:00 +7°C° 1.8 mm 1 mps 740 mmHg 92%
    11:00 +8°C° 0.8 mm 1 mps 740 mmHg 90%
    12:00 +8°C° 0.8 mm 1 mps 740 mmHg 88%
    13:00 +9°C° 0.8 mm 1 mps 740 mmHg 86%
    14:00 +9°C° 0.4 mm 1 mps 740 mmHg 88%
    15:00 +9°C° 0.4 mm 1 mps 740 mmHg 90%
    16:00 +9°C° 0.4 mm 1 mps 741 mmHg 91%
    17:00 +8°C° 0.6 mm 1 mps 741 mmHg 92%
    18:00 +8°C° 0.6 mm 1 mps 742 mmHg 93%
    19:00 +8°C° 0.6 mm 1 mps 742 mmHg 94%
    20:00 +8°C° 0.1 mm 1 mps 743 mmHg 93%
    21:00 +7°C° 0.1 mm 2 mps 743 mmHg 93%
    22:00 +7°C° 0.1 mm 2 mps 743 mmHg 92%
    23:00 +7°C° 0 mm 2 mps 743 mmHg 91%

    24 January, Thursday

    Time Temperature Precipitation Wind Pressure Humidity
    00:00 +6°C° 0 mm 2 mps 743 mmHg 89%
    01:00 +6°C° 0 mm 2 mps 743 mmHg 87%
    02:00 +5°C° 0 mm 2 mps 743 mmHg 86%
    03:00 +4°C° 0 mm 3 mps 742 mmHg 84%
    04:00 +4°C° 0 mm 3 mps 742 mmHg 82%
    05:00 +4°C° 0 mm 3 mps 742 mmHg 81%
    06:00 +3°C° 0 mm 3 mps 741 mmHg 80%
    07:00 +3°C° 0 mm 4 mps 741 mmHg 79%
    08:00 +4°C° 0 mm 4 mps 741 mmHg 76%
    09:00 +5°C° 0 mm 4 mps 741 mmHg 73%
    10:00 +6°C° 0 mm 5 mps 741 mmHg 70%
    11:00 +7°C° 0 mm 5 mps 740 mmHg 69%
    12:00 +8°C° 0 mm 5 mps 740 mmHg 67%
    13:00 +8°C° 0 mm 5 mps 739 mmHg 66%
    14:00 +8°C° 0 mm 4 mps 739 mmHg 68%
    15:00 +7°C° 0 mm 4 mps 739 mmHg 70%
    16:00 +6°C° 0 mm 4 mps 739 mmHg 72%
    17:00 +6°C° 0.1 mm 4 mps 740 mmHg 73%
    18:00 +6°C° 0.1 mm 4 mps 740 mmHg 73%
    19:00 +5°C° 0.1 mm 3 mps 740 mmHg 74%
    20:00 +5°C° 0 mm 3 mps 740 mmHg 74%
    21:00 +5°C° 0 mm 3 mps 740 mmHg 74%
    22:00 +4°C° 0 mm 3 mps 741 mmHg 74%
    23:00 +5°C° 0.1 mm 3 mps 741 mmHg 74%

    25 January, Friday

    Time Temperature Precipitation Wind Pressure Humidity
    00:00 +5°C° 0.1 mm 3 mps 741 mmHg 74%
    01:00 +6°C° 0.1 mm 2 mps 741 mmHg 74%
    02:00 +6°C° 0 mm 2 mps 741 mmHg 74%
    03:00 +5°C° 0 mm 2 mps 741 mmHg 74%
    04:00 +5°C° 0 mm 2 mps 741 mmHg 75%
    05:00 +5°C° 0 mm 2 mps 741 mmHg 75%
    06:00 +5°C° 0 mm 2 mps 742 mmHg 75%
    07:00 +5°C° 0 mm 2 mps 742 mmHg 75%
    08:00 +4°C° 0 mm 3 mps 743 mmHg 73%
    09:00 +5°C° 0 mm 3 mps 743 mmHg 70%
    10:00 +7°C° 0 mm 3 mps 744 mmHg 67%
    11:00 +6°C° 0 mm 4 mps 744 mmHg 66%
    12:00 +7°C° 0 mm 4 mps 744 mmHg 65%
    13:00 +7°C° 0 mm 4 mps 744 mmHg 63%
    14:00 +7°C° 0 mm 4 mps 745 mmHg 64%
    15:00 +6°C° 0 mm 4 mps 745 mmHg 66%
    16:00 +6°C° 0 mm 4 mps 746 mmHg 67%
    17:00 +5°C° 0 mm 4 mps 747 mmHg 67%
    18:00 +4°C° 0 mm 4 mps 747 mmHg 68%
    19:00 +4°C° 0 mm 4 mps 748 mmHg 68%
    20:00 +3°C° 0 mm 4 mps 748 mmHg 68%
    21:00 +3°C° 0 mm 4 mps 749 mmHg 68%
    22:00 +3°C° 0 mm 3 mps 750 mmHg 67%
    23:00 +3°C° 0 mm 4 mps 750 mmHg 68%
    Show more